URO92P EINN-EGNV

Flight info

Callsign URO92P
Flight time 0h 54m
Altitude 29000
Route OSGAR3B OSGAR DCT ENDEQ Q36 ALAVA Z195 MALUD UL975 BARTN UP17 POL
Aircraft A346/H-SDE2E3FGHIJ3J4J5M1RWXY/LB1D1

Departure

Time 2026-05-07 20:34
Airport Shannon Airport (EINN)

Arrival

Time 2026-05-07 21:28
Airport Teesside International Airport (EGNV)
Time Latitude Longitude Altitude Speed Heading
2026-05-07 20:12 52.69146 -8.91506 24 ft 0 kts 179°
2026-05-07 20:23 52.69154 -8.91506 24 ft 2 kts 191°
2026-05-07 20:23 52.69166 -8.91494 24 ft 2 kts 233°
2026-05-07 20:23 52.69172 -8.91472 24 ft 2 kts 268°
2026-05-07 20:23 52.69169 -8.91448 24 ft 2 kts 302°
2026-05-07 20:24 52.69161 -8.91432 24 ft 0 kts 313°
2026-05-07 20:27 52.69162 -8.91432 24 ft 0 kts 313°
2026-05-07 20:27 52.69173 -8.91459 24 ft 5 kts 307°
2026-05-07 20:27 52.69211 -8.91513 24 ft 8 kts 336°
2026-05-07 20:28 52.69285 -8.91509 24 ft 12 kts 16°
2026-05-07 20:28 52.69380 -8.91461 24 ft 15 kts 18°
2026-05-07 20:28 52.69492 -8.91401 24 ft 18 kts 18°
2026-05-07 20:28 52.69619 -8.91332 24 ft 20 kts 19°
2026-05-07 20:29 52.69759 -8.91254 24 ft 22 kts 18°
2026-05-07 20:29 52.69912 -8.91172 24 ft 24 kts 18°
2026-05-07 20:29 52.70080 -8.91080 24 ft 26 kts 19°
2026-05-07 20:29 52.70258 -8.90982 25 ft 27 kts 18°
2026-05-07 20:30 52.70423 -8.90890 26 ft 19 kts 19°
2026-05-07 20:30 52.70551 -8.90818 26 ft 19 kts 19°
2026-05-07 20:30 52.70677 -8.90748 27 ft 16 kts 18°
2026-05-07 20:30 52.70786 -8.90690 28 ft 11 kts 18°
2026-05-07 20:31 52.70815 -8.90675 28 ft 5 kts 18°
2026-05-07 20:31 52.70832 -8.90668 28 ft 0 kts 10°
2026-05-07 20:31 52.70845 -8.90666 28 ft 3 kts
2026-05-07 20:31 52.70873 -8.90675 29 ft 0 kts 339°
2026-05-07 20:32 52.70879 -8.90679 29 ft 4 kts 334°
2026-05-07 20:32 52.70930 -8.90734 29 ft 13 kts 322°
2026-05-07 20:33 52.70957 -8.90846 29 ft 11 kts 246°
2026-05-07 20:33 52.70876 -8.91039 28 ft 49 kts 232°
2026-05-07 20:33 52.70500 -8.91838 27 ft 125 kts 232°
2026-05-07 20:33 52.69839 -8.93222 185 ft 169 kts 233°
2026-05-07 20:34 52.69112 -8.94704 923 ft 168 kts 233°
2026-05-07 20:34 52.68644 -8.96454 1613 ft 174 kts 265°
2026-05-07 20:34 52.68973 -8.98344 2294 ft 183 kts 296°
2026-05-07 20:34 52.69621 -9.00127 2989 ft 185 kts 298°
2026-05-07 20:35 52.70269 -9.01986 3637 ft 188 kts 296°
2026-05-07 20:35 52.70875 -9.03913 4163 ft 200 kts 296°
2026-05-07 20:35 52.71864 -9.05660 4601 ft 225 kts 333°
2026-05-07 20:35 52.73466 -9.06008 5070 ft 250 kts 12°
2026-05-07 20:36 52.75030 -9.04562 5571 ft 271 kts 48°
2026-05-07 20:36 52.75885 -9.01748 6228 ft 282 kts 78°
2026-05-07 20:36 52.76248 -8.98583 7143 ft 286 kts 81°
2026-05-07 20:36 52.76642 -8.95386 8066 ft 289 kts 78°
2026-05-07 20:37 52.77127 -8.92193 8981 ft 293 kts 76°
2026-05-07 20:37 52.77697 -8.88951 9907 ft 297 kts 74°
2026-05-07 20:37 52.78315 -8.85720 10686 ft 305 kts 73°
2026-05-07 20:37 52.78997 -8.82321 11210 ft 323 kts 72°
2026-05-07 20:38 52.79743 -8.78714 11744 ft 342 kts 72°
2026-05-07 20:38 52.80544 -8.74901 12175 ft 361 kts 72°
2026-05-07 20:38 52.81383 -8.70933 12614 ft 379 kts 71°
2026-05-07 20:38 52.82279 -8.66712 13105 ft 396 kts 71°
2026-05-07 20:39 52.83203 -8.62367 13855 ft 404 kts 71°
2026-05-07 20:39 52.84121 -8.58045 14682 ft 408 kts 71°
2026-05-07 20:39 52.85070 -8.53566 15499 ft 413 kts 71°
2026-05-07 20:39 52.86007 -8.49131 16251 ft 418 kts 71°
2026-05-07 20:40 52.86972 -8.44556 17008 ft 423 kts 72°
2026-05-07 20:40 52.87938 -8.39963 17738 ft 428 kts 72°
2026-05-07 20:40 52.88915 -8.35309 18451 ft 432 kts 72°
2026-05-07 20:40 52.89909 -8.30567 19156 ft 437 kts 72°
2026-05-07 20:41 52.90908 -8.25782 19846 ft 442 kts 72°
2026-05-07 20:41 52.91900 -8.21024 20499 ft 447 kts 72°
2026-05-07 20:41 52.92921 -8.16113 21132 ft 452 kts 72°
2026-05-07 20:41 52.93942 -8.11186 21777 ft 456 kts 72°
2026-05-07 20:42 52.94964 -8.06240 22419 ft 461 kts 72°
2026-05-07 20:42 52.96006 -8.01188 23051 ft 465 kts 72°
2026-05-07 20:42 52.97045 -7.96144 23651 ft 469 kts 72°
2026-05-07 20:42 52.98103 -7.90987 24247 ft 473 kts 72°
2026-05-07 20:43 52.99161 -7.85823 24831 ft 477 kts 72°
2026-05-07 20:43 53.00222 -7.80628 25426 ft 480 kts 72°
2026-05-07 20:43 53.01295 -7.75360 26012 ft 484 kts 72°
2026-05-07 20:43 53.02362 -7.70107 26558 ft 487 kts 72°
2026-05-07 20:44 53.03450 -7.64737 27099 ft 491 kts 72°
2026-05-07 20:44 53.04535 -7.59371 27788 ft 491 kts 72°
2026-05-07 20:44 53.05620 -7.53990 28465 ft 491 kts 72°
2026-05-07 20:44 53.06697 -7.48630 28887 ft 494 kts 72°
2026-05-07 20:45 53.07789 -7.43177 28970 ft 496 kts 72°
2026-05-07 20:45 53.09958 -7.32317 28968 ft 497 kts 73°
2026-05-07 20:46 53.12116 -7.21443 28967 ft 497 kts 73°
2026-05-07 20:46 53.14261 -7.10572 28970 ft 496 kts 73°
2026-05-07 20:47 53.16402 -6.99665 28969 ft 495 kts 73°
2026-05-07 20:47 53.18524 -6.88787 28968 ft 495 kts 73°
2026-05-07 20:48 53.20639 -6.77887 28967 ft 495 kts 73°
2026-05-07 20:48 53.22741 -6.66996 28964 ft 495 kts 73°
2026-05-07 20:49 53.24818 -6.56169 28965 ft 495 kts 73°
2026-05-07 20:49 53.26910 -6.45206 28964 ft 496 kts 73°
2026-05-07 20:50 53.28975 -6.34311 28963 ft 496 kts 74°
2026-05-07 20:50 53.31074 -6.23174 28961 ft 495 kts 74°
2026-05-07 20:51 53.33118 -6.12265 28964 ft 495 kts 74°
2026-05-07 20:51 53.35159 -6.01315 28967 ft 494 kts 74°
2026-05-07 20:52 53.37190 -5.90352 28969 ft 494 kts 74°
2026-05-07 20:52 53.39211 -5.79375 28969 ft 494 kts 74°
2026-05-07 20:53 53.41218 -5.68409 28973 ft 494 kts 74°
2026-05-07 20:53 53.43184 -5.57468 28968 ft 495 kts 77°
2026-05-07 20:54 53.44293 -5.46133 28972 ft 491 kts 88°
2026-05-07 20:54 53.44235 -5.34823 28972 ft 489 kts 95°
2026-05-07 20:55 53.43905 -5.23415 28976 ft 489 kts 95°
2026-05-07 20:55 53.43588 -5.12092 28984 ft 489 kts 95°
2026-05-07 20:56 53.43230 -5.00760 28990 ft 488 kts 96°
2026-05-07 20:56 53.42857 -4.89407 28991 ft 488 kts 95°
2026-05-07 20:57 53.42483 -4.78127 29001 ft 487 kts 95°
2026-05-07 20:57 53.42101 -4.66844 29004 ft 487 kts 95°
2026-05-07 20:58 53.41708 -4.55521 29007 ft 487 kts 95°
2026-05-07 20:58 53.41307 -4.44273 29014 ft 487 kts 95°
2026-05-07 20:59 53.40892 -4.32983 29013 ft 487 kts 96°
2026-05-07 20:59 53.40464 -4.21594 29016 ft 487 kts 96°
2026-05-07 21:00 53.40029 -4.10337 29017 ft 486 kts 96°
2026-05-07 21:00 53.39681 -3.99087 29020 ft 487 kts 92°
2026-05-07 21:01 53.39956 -3.87739 29022 ft 488 kts 87°
2026-05-07 21:01 53.40541 -3.76486 29020 ft 488 kts 86°
2026-05-07 21:02 53.41081 -3.65182 29020 ft 488 kts 88°
2026-05-07 21:02 53.41033 -3.53897 29025 ft 487 kts 95°
2026-05-07 21:03 53.40535 -3.42608 29027 ft 487 kts 96°
2026-05-07 21:03 53.40013 -3.31341 29028 ft 488 kts 96°
2026-05-07 21:04 53.39499 -3.19848 28572 ft 487 kts 94°
2026-05-07 21:04 53.39491 -3.13888 27982 ft 485 kts 89°
2026-05-07 21:04 53.39782 -3.08316 27336 ft 484 kts 84°
2026-05-07 21:04 53.40334 -3.02772 26654 ft 483 kts 81°
2026-05-07 21:05 53.41001 -2.96958 26152 ft 476 kts 80°
2026-05-07 21:05 53.41664 -2.91299 25698 ft 470 kts 79°
2026-05-07 21:05 53.42284 -2.85949 25252 ft 465 kts 80°
2026-05-07 21:05 53.42885 -2.80674 24804 ft 460 kts 80°
2026-05-07 21:06 53.43469 -2.75479 24362 ft 456 kts 80°
2026-05-07 21:06 53.44051 -2.70236 23910 ft 452 kts 80°
2026-05-07 21:06 53.44615 -2.65143 23474 ft 447 kts 80°
2026-05-07 21:06 53.45177 -2.60037 23037 ft 444 kts 80°
2026-05-07 21:07 53.45737 -2.54923 22577 ft 440 kts 80°
2026-05-07 21:07 53.46292 -2.49859 22123 ft 437 kts 79°
2026-05-07 21:07 53.47268 -2.44887 21621 ft 434 kts 63°
2026-05-07 21:07 53.49079 -2.40596 21172 ft 430 kts 45°
2026-05-07 21:08 53.51470 -2.37316 20723 ft 426 kts 34°
2026-05-07 21:08 53.53994 -2.34395 20272 ft 422 kts 34°
2026-05-07 21:08 53.56505 -2.31514 20021 ft 434 kts 34°
2026-05-07 21:08 53.59003 -2.28615 20008 ft 438 kts 34°
2026-05-07 21:09 53.61500 -2.25682 20004 ft 438 kts 35°
2026-05-07 21:09 53.63969 -2.22758 20003 ft 438 kts 35°
2026-05-07 21:09 53.66447 -2.19808 19864 ft 432 kts 35°
2026-05-07 21:09 53.68885 -2.16899 19285 ft 430 kts 35°
2026-05-07 21:10 53.71323 -2.13985 18622 ft 429 kts 35°
2026-05-07 21:10 53.73772 -2.11134 18037 ft 426 kts 33°
2026-05-07 21:10 53.76257 -2.08586 17499 ft 422 kts 29°
2026-05-07 21:10 53.78811 -2.06185 16954 ft 419 kts 28°
2026-05-07 21:11 53.81365 -2.03832 16405 ft 416 kts 28°
2026-05-07 21:11 53.83894 -2.01507 15866 ft 413 kts 28°
2026-05-07 21:11 53.88881 -1.96903 14815 ft 407 kts 28°
2026-05-07 21:12 53.91332 -1.94630 14299 ft 403 kts 28°
2026-05-07 21:12 53.93779 -1.92357 14042 ft 402 kts 29°
2026-05-07 21:12 53.96228 -1.90077 14041 ft 403 kts 29°
2026-05-07 21:12 53.98652 -1.87815 14033 ft 389 kts 29°
2026-05-07 21:13 54.00980 -1.85641 14030 ft 373 kts 29°
2026-05-07 21:13 54.03191 -1.83574 14015 ft 357 kts 29°
2026-05-07 21:13 54.05334 -1.81567 13887 ft 346 kts 29°
2026-05-07 21:13 54.07393 -1.79635 13720 ft 337 kts 29°
2026-05-07 21:14 54.09417 -1.77732 13565 ft 328 kts 29°
2026-05-07 21:14 54.11402 -1.75866 13390 ft 319 kts 29°
2026-05-07 21:14 54.13312 -1.74067 13120 ft 315 kts 29°
2026-05-07 21:14 54.15221 -1.72270 12795 ft 314 kts 29°
2026-05-07 21:15 54.17126 -1.70473 12387 ft 313 kts 28°
2026-05-07 21:15 54.19035 -1.68671 12034 ft 311 kts 28°
2026-05-07 21:15 54.20900 -1.66909 11562 ft 310 kts 28°
2026-05-07 21:15 54.22797 -1.65159 11084 ft 307 kts 24°
2026-05-07 21:16 54.24801 -1.64000 10593 ft 304 kts
2026-05-07 21:16 54.26865 -1.63426 10148 ft 301 kts
2026-05-07 21:16 54.28934 -1.62962 9690 ft 299 kts
2026-05-07 21:16 54.30955 -1.62532 9232 ft 297 kts
2026-05-07 21:17 54.33007 -1.62106 8761 ft 295 kts
2026-05-07 21:17 54.35023 -1.61694 8304 ft 294 kts
2026-05-07 21:17 54.37051 -1.61289 8041 ft 291 kts
2026-05-07 21:17 54.39066 -1.60891 8047 ft 292 kts
2026-05-07 21:18 54.41088 -1.60489 8041 ft 292 kts
2026-05-07 21:18 54.43081 -1.60087 8037 ft 292 kts
2026-05-07 21:18 54.45098 -1.59671 8015 ft 289 kts
2026-05-07 21:18 54.47039 -1.58918 7686 ft 289 kts 17°
2026-05-07 21:19 54.48932 -1.57771 7314 ft 290 kts 19°
2026-05-07 21:19 54.50826 -1.56542 6959 ft 289 kts 20°
2026-05-07 21:19 54.52709 -1.55308 6609 ft 288 kts 20°
2026-05-07 21:19 54.54554 -1.54102 6297 ft 286 kts 20°
2026-05-07 21:20 54.56376 -1.52729 5924 ft 285 kts 34°
2026-05-07 21:20 54.57837 -1.50480 5623 ft 275 kts 48°
2026-05-07 21:20 54.59087 -1.48128 5423 ft 265 kts 50°
2026-05-07 21:20 54.60296 -1.45782 5231 ft 255 kts 50°
2026-05-07 21:21 54.61452 -1.43521 5080 ft 247 kts 50°
2026-05-07 21:21 54.62570 -1.41341 4924 ft 240 kts 50°
2026-05-07 21:21 54.63653 -1.39233 4697 ft 231 kts 50°
2026-05-07 21:21 54.64710 -1.37178 4378 ft 229 kts 50°
2026-05-07 21:22 54.65761 -1.35134 3988 ft 228 kts 50°
2026-05-07 21:22 54.66818 -1.33068 3568 ft 227 kts 54°
2026-05-07 21:22 54.67489 -1.30698 3139 ft 219 kts 88°
2026-05-07 21:22 54.67481 -1.28137 2749 ft 210 kts 113°
2026-05-07 21:23 54.66739 -1.26103 2338 ft 197 kts 149°
2026-05-07 21:23 54.65516 -1.25294 2039 ft 188 kts 174°
2026-05-07 21:23 54.64216 -1.25129 2009 ft 184 kts 182°
2026-05-07 21:23 54.63020 -1.25453 1993 ft 169 kts 194°
2026-05-07 21:24 54.61886 -1.25961 2021 ft 168 kts 194°
2026-05-07 21:24 54.60779 -1.26477 2032 ft 163 kts 195°
2026-05-07 21:24 54.59720 -1.27108 2000 ft 162 kts 207°
2026-05-07 21:24 54.58814 -1.28282 2005 ft 163 kts 219°
2026-05-07 21:25 54.58009 -1.29663 1974 ft 163 kts 223°
2026-05-07 21:25 54.57272 -1.31056 1786 ft 153 kts 224°
2026-05-07 21:25 54.56560 -1.32406 1584 ft 152 kts 224°
2026-05-07 21:25 54.55852 -1.33732 1373 ft 151 kts 224°
2026-05-07 21:26 54.55143 -1.35051 1167 ft 150 kts 224°
2026-05-07 21:26 54.54427 -1.36386 963 ft 150 kts 224°
2026-05-07 21:26 54.54195 -1.36825 894 ft 150 kts 224°
2026-05-07 21:26 54.53496 -1.38152 703 ft 149 kts 224°
2026-05-07 21:27 54.52784 -1.39439 515 ft 149 kts 224°
2026-05-07 21:27 54.52085 -1.40752 305 ft 148 kts 224°
2026-05-07 21:27 54.51389 -1.42067 139 ft 145 kts 225°
2026-05-07 21:27 54.50840 -1.43084 135 ft 80 kts 227°
2026-05-07 21:28 54.50618 -1.43486 136 ft 20 kts 229°
2026-05-07 21:28 54.50560 -1.43612 136 ft 6 kts 250°
2026-05-07 21:28 54.50576 -1.43689 136 ft 9 kts 315°
2026-05-07 21:28 54.50642 -1.43746 136 ft 11 kts 345°
2026-05-07 21:29 54.50725 -1.43766 136 ft 11 kts 357°
2026-05-07 21:29 54.50804 -1.43746 136 ft 11 kts 19°
2026-05-07 21:29 54.50864 -1.43688 136 ft 7 kts 37°
2026-05-07 21:29 54.50914 -1.43607 136 ft 11 kts 49°
2026-05-07 21:30 54.50965 -1.43481 136 ft 13 kts 58°
2026-05-07 21:30 54.51002 -1.43435 136 ft 6 kts 354°
2026-05-07 21:30 54.51042 -1.43462 136 ft 4 kts 330°
2026-05-07 21:30 54.51048 -1.43468 136 ft 0 kts 330°